www.pogodaiklimat.ru

Погода и климат >> Архив погоды >> Кука Острова >> Penrhyn


ПОГОДА в Penrhyn

  • Прогноз погоды в Penrhyn
  • Монитор погоды в Penrhyn
  • Климат города

АРХИВ ПОГОДЫ в Penrhyn

Время (UTC), дата Ветер
(напр.,м/с)
 
Видим.   Явления Облачность Т
(С)
Тd
(С)
f
(%)
Тe
(С)
Тes
(С)
Комфортность P
(гПа)
Po
(гПа)
Тmin
(С)
Tmax
(С)
R
(мм)
R24
(мм)
S
(см)
12 17.05 В 3 н/о н/о +28.8 +26.4 87 +44 +44 опасность
перегрева
1009.2 1009.0 +31.2
15 17.05 ЮВ 3 н/о н/о +28.8 +26.2 86 +44 +44 опасность
перегрева
1009.2 1009.0
18 17.05 ЮВ 6 н/о н/о +25.9 +25.0 95 +37 +37 очень
душно
1011.6 1012.0 1
21 17.05 ЮВ 4 н/о н/о +30.0 +26.8 83 +47 +47 опасность
перегрева
1011.9 1012.0
00 18.05 В 2 н/о н/о +31.8 +26.9 75 +49 +49 опасность
перегрева
1009.5 1010.0 +25.8 0.4
03 18.05 В 2 н/о н/о +31.8 +26.9 75 +49 +49 опасность
перегрева
1009.5 1010.0 +25.8 0.4
06 18.05 В 2 н/о н/о +30.6 +27.1 82 +48 +48 опасность
перегрева
1008.8 1009.0
09 18.05 В 2 н/о н/о +28.9 +26.3 86 +44 +44 опасность
перегрева
1011.1 1011.0
12 18.05 В 2 н/о н/о +28.7 +26.0 85 +43 +43 опасность
перегрева
1010.6 1011.0 +32.1
15 18.05 В 2 н/о н/о +28.3 +25.5 85 +42 +42 опасность
перегрева
1009.7 1010.0
18 18.05 В 2 н/о н/о +29.6 +25.9 81 +44 +44 опасность
перегрева
1011.4 1011.0
21 18.05 В 3 н/о н/о +31.1 +26.1 75 +47 +47 опасность
перегрева
1011.5 1012.0
00 19.05 В 3 н/о н/о +32.3 +26.7 72 +49 +49 опасность
перегрева
1009.4 1009.0 +27.9
03 19.05 В 1 н/о н/о +30.6 +25.6 75 +45 +45 опасность
перегрева
1008.8 1009.0
06 19.05 В 3 н/о н/о +28.9 +24.8 79 +41 +41 опасность
перегрева
1010.6 1011.0
09 19.05 В 3 н/о н/о +28.8 +24.8 79 +41 +41 опасность
перегрева
1011.0 1011.0
12 19.05 В 5 н/о н/о +28.5 +25.0 81 +41 +41 опасность
перегрева
1009.8 1010.0 +32.8
15 19.05 В 3 н/о н/о +28.0 +24.8 83 +40 +40 очень
душно
1008.9 1009.0
18 19.05 В 3 н/о н/о +29.5 +25.3 78 +43 +43 опасность
перегрева
1010.1 1010.0
21 19.05 В 3 н/о н/о +32.2 +26.3 71 +48 +48 опасность
перегрева
1009.9 1010.0
03 20.05 В 2 н/о н/о +30.1 +26.0 79 +45 +45 опасность
перегрева
1007.0 1007.0
06 20.05 ЮВ 3 н/о н/о +29.4 +25.2 78 +43 +43 опасность
перегрева
1009.0 1009.0
09 20.05 В 2 н/о н/о +29.3 +25.3 79 +43 +43 опасность
перегрева
1009.9 1010.0
12 20.05 В 3 н/о н/о +29.0 +25.2 80 +42 +42 опасность
перегрева
1008.8 1009.0 +33.0
15 20.05 В 3 н/о н/о +28.7 +25.1 81 +42 +42 опасность
перегрева
1008.2 1008.0
18 20.05 ЮВ 3 н/о н/о +29.5 +24.2 73 +41 +41 опасность
перегрева
1010.0 1010.0
21 20.05 В 2 н/о н/о +30.9 +25.2 72 +45 +45 опасность
перегрева
1009.9 1010.0
00 21.05 ЮВ 3 н/о н/о +31.0 +24.9 70 +44 +44 опасность
перегрева
1007.7 1008.0 +28.6
03 21.05 В 3 н/о н/о +30.5 +24.3 70 +43 +43 опасность
перегрева
1007.5 1008.0
06 21.05 В 2 н/о н/о +29.1 +24.8 78 +42 +42 опасность
перегрева
1008.9 1009.0
09 21.05 ЮВ 2 н/о н/о +28.7 +23.9 75 +40 +40 очень
душно
1009.3 1009.0
12 21.05 ЮВ 2 н/о н/о +28.3 +24.7 81 +40 +40 очень
душно
1008.4 1008.0 +31.9
15 21.05 ЮВ 3 н/о н/о +28.3 +24.7 81 +40 +40 очень
душно
1008.7 1009.0
18 21.05 Ю 5 н/о н/о +29.6 +25.0 76 +42 +42 опасность
перегрева
1009.9 1010.0
21 21.05 Ю 6 н/о н/о +32.0 +26.8 74 +49 +49 опасность
перегрева
1009.6 1010.0
00 22.05 Ю 3 н/о н/о +27.3 +26.6 96 +42 +42 опасность
перегрева
1008.1 1008.0 +26.9 4
03 22.05 Ю 6 н/о н/о +25.4 +24.6 95 +36 +36 очень
душно
1007.8 1008.0
09 22.05 Ю 5 н/о н/о +27.6 +26.2 92 +42 +42 опасность
перегрева
1008.9 1009.0
12 22.05 В 3 н/о н/о +28.0 +26.3 91 +43 +43 опасность
перегрева
1007.1 1007.0 +32.1 0.2
15 22.05 СВ 3 н/о н/о +27.8 +26.0 90 +42 +42 опасность
перегрева
1007.3 1007.0
18 22.05 СВ 3 н/о н/о +28.7 +26.7 89 +45 +45 опасность
перегрева
1010.0 1010.0
21 22.05 В 3 н/о н/о +30.5 +26.5 79 +47 +47 опасность
перегрева
1010.5 1011.0
03 23.05 В 4 н/о н/о +29.5 +26.0 81 +44 +44 опасность
перегрева
1006.7 1007.0
06 23.05 В 4 н/о н/о +28.6 +26.0 86 +43 +43 опасность
перегрева
1007.7 1008.0
09 23.05 В 3 н/о н/о +28.6 +26.1 86 +43 +43 опасность
перегрева
1008.9 1009.0
12 23.05 СВ 2 н/о н/о +28.3 +26.0 87 +42 +42 опасность
перегрева
1007.6 1008.0 +31.9
15 23.05 В 2 н/о н/о +28.2 +25.5 85 +41 +41 опасность
перегрева
1007.9 1008.0
18 23.05 В 1 н/о н/о +29.3 +26.3 84 +45 +45 опасность
перегрева
1009.7 1010.0
21 23.05 В 3 н/о н/о +31.1 +26.5 77 +48 +48 опасность
перегрева
1010.2 1010.0

 

Местоположение метеостанции Penrhyn (Кука Острова): широта -9.03 долгота -158.00 высота над уровнем моря 1 м.

В архиве по умолчанию представлена погода в Penrhyn за последнюю неделю. Архивные данные за месяц целиком и за предыдущие месяцы, начиная с января 2011 года, Вы можете получить, выбрав интересующий диапазон дат из раскрывающегося списка и нажав кнопку "Ввод!".

Внимание! Время в таблицах - всемирное. Для получения местного времени необходимо прибавить поправку, которая в Penrhyn равна -10 ч.

Смотрите также архив погоды в соседних городах и на ближайших метеорологических станциях:

Погода в Manihiki (Кука Острова) (366 км)
Погода в Bora-Bora Airport (Французская Полинезия) (1070 км)
Погода в Aitutaki (Кука Острова) (1105 км)
Погода в Christmas (Кирибати) (1226 км)
Погода в Tahiti-Faaa (Французская Полинезия) (1313 км)
Погода в Rarotonga (Кука Острова) (1367 км)
Погода в Takaroa (Французская Полинезия) (1539 км)
Погода в Lufi-Lufi (Самоа) (1573 км)
Погода в Le Mafa (Самоа) (1580 км)
Погода в Apia (Американское Самоа) (1584 км)

Пояснения к столбцам:

Ветер - указаны скорость ветра в м/с - средняя за 10 мин, порывы в срок и между сроками (в фигурных скобках) и направление, откуда дует ветер: С - северный, СВ - северо-восточный, В - восточный, ЮВ - юго-восточный, Ю - южный, ЮЗ - юго-западный, З - западный, СЗ - северо-западный.
Видимость - горизонтальная дальность видимости в метрах или километрах. При видимости от 1 до 10 км при отсутствии осадков обычно наблюдается дымка, при ухудшении видимости до 1 км и менее - туман. В сухую погоду видимость может ухудшаться дымом, пылью или мглою.
Явления - указаны атмосферные явления, наблюдавшиеся в срок или в последний час перед сроком; фигурными скобками обозначены явления, наблюдавшиеся между сроками (за 1-3 часа до срока); квадратными скобками обозначены град или гололедные отложения с указанием их диаметра в мм.
Облачность - указаны через наклонную черту общая и нижняя облачность в баллах и высота нижней границы облаков в метрах; квадратными скобками обозначены формы облаков: Ci - перистые, Cs - перисто-слоистые, Cc - перисто-кучевые, Ac - высококучевые, As - высокослоистые, Sc - слоисто-кучевые, Ns - слоисто-дождевые, Cu - кучевые, Cb - кучево-дождевые. Подробнее классификацию облаков см. в Атласе облаков (PDF).
T - Температура воздуха - температура, измеренная на высоте 2 м над землей.
Td - Температура точки росы - температура, при понижении до которой содержащийся в воздухе водяной пар достигнет насыщения.
f - Относительная влажность воздуха - влажноcть воздуха, измеренная на высоте 2 м над землей.
Te - Эффективная температура - температура, которую ощущает одетый по сезону человек в тени. Характеристика душности погоды. При расчете учитывается влияние влажности воздуха и скорости ветра на теплоощущения человека.
Tes - Эффективная температура на солнце - температура, которую ощущает человек, с поправкой на солнечный нагрев. Характеристика знойности погоды. Зависит от высоты солнца над горизонтом, облачности и скорости ветра. Ночью, в пасмурную погоду, а также при ветре 12 м/с и более поправка равна нулю.
P - Атмосферное давление - приведенное к уровню моря атмосферное давление.
Po - Атмосферное давление - измеренное на уровне метеостанции атмосферное давление.
Tmin - Минимальная температура - минимум температуры воздуха на высоте 2 м над землей.
Tmax - Максимальная температура - максимум температуры воздуха на высоте 2 м над землей.
R - Количество осадков - Количество выпавших осадков за период времени, мм. При наведении курсора мыши на число - период времени, за который выпало указанное количество осадков.
R24 - Количество осадков - Количество выпавших осадков за 24 часа, мм.
S - Снежный покров - Высота снежного покрова, см. При наведении курсора мыши на число - состояние снежного покрова и степень покрытия местности в баллах.